Voltar ao catálogo

FENGYUN 1C DEB

AtivoSSO
NORAD 29923·DEBRIS·🇨🇳 China

Lançado May 10, 1999 de Taiyuan Satellite Launch Center

Loading…

Próximas Passagens (próximas 24 horas)

TLE

AtualizadoSource: Space-Track

Época: Sep 14, 2026, 05:54 UTC

1 29923U 99025HV  26257.24609177  .00000478  00000-0  27194-3 0  9993
2 29923  98.6880 262.9268 0018566 104.3925 316.3645 14.14347643 11671

Acompanhe FENGYUN 1C DEB em tempo real com AllMySat

Download on the App Store